Notices

What's New in latest Release from April 7th, 2021:

- Updated Glossary, including Speed of Maximum Gust, and Total Hourly Precipitation

- Updated national and regional climate services offices contacts and prices information

- Addition of station inventory lists for 1981-2010, 1971-2000, and 1961-1990 Normals.

If you haven't already, please take our survey and provide feedback about our website: https://eccc.sondage-survey.ca/f/LanguageSelection.aspx?s=442ca660-fcf1-47c0-95a9-59707d6fd709

Hourly Data Report for August 18, 2016

TORONTO CITY
ONTARIO

43°40'00.000" N
79°24'00.000" W
112.50 m
6158355
71508
XTO

Download Data

Hourly Data (August 2016)
Hourly Data Report for August 18, 2016
TIME
LST
Temp Definition
°C
Dew Point Definition
°C
Rel Hum Definition
%
Precip. Amount Definition
mm

Wind Dir Definition
10's deg

Wind Spd Definition
km/h
Visibility Definition
km
Stn Press Definition
kPa
Hmdx Definition


Wind Chill Definition


Weather Definition


00:00 21.5 18.9 85 0.0 LegendMM LegendMM   100.23 28   LegendNANA
01:00 21.8 19.0 84 0.0 LegendMM LegendMM   100.20 29   LegendNANA
02:00 22.0 18.9 83 0.0 LegendMM LegendMM   100.20 29   LegendNANA
03:00 22.0 17.8 77 0.0 LegendMM LegendMM   100.17 28   LegendNANA
04:00 21.1 17.6 81 0.0 LegendMM LegendMM   100.20 27   LegendNANA
05:00 20.5 17.4 82 0.0 LegendMM LegendMM   100.24 26   LegendNANA
06:00 20.4 17.5 84 0.0 LegendMM LegendMM   100.28 26   LegendNANA
07:00 21.3 17.7 80 0.0 LegendMM LegendMM   100.31 27   LegendNANA
08:00 23.0 18.2 74 0.0 LegendMM LegendMM   100.36 29   LegendNANA
09:00 22.9 17.8 73 0.0 LegendMM LegendMM   100.35 29   LegendNANA
10:00 24.3 17.1 64 0.0 LegendMM LegendMM   100.35 30   LegendNANA
11:00 24.9 16.9 61 0.0 LegendMM LegendMM   100.35 30   LegendNANA
12:00 26.7 15.9 52 0.0 LegendMM LegendMM   100.32 31   LegendNANA
13:00 27.3 19.0 61 0.0 LegendMM LegendMM   100.32 34   LegendNANA
14:00 26.9 18.8 61 0.0 LegendMM LegendMM   100.29 34   LegendNANA
15:00 27.0 19.3 62 0.0 LegendMM LegendMM   100.26 34   LegendNANA
16:00 26.0 18.0 61 0.0 LegendMM LegendMM   100.24 32   LegendNANA
17:00 24.7 17.6 65 0.0 LegendMM LegendMM   100.26 30   LegendNANA
18:00 24.8 17.0 62 0.0 LegendMM LegendMM   100.20 30   LegendNANA
19:00 24.2 17.2 65 0.0 LegendMM LegendMM   100.18 30   LegendNANA
20:00 23.1 17.2 69 0.0 LegendMM LegendMM   100.20 29   LegendNANA
21:00 23.2 17.0 68 0.0 LegendMM LegendMM   100.20 28   LegendNANA
22:00 24.2 17.5 66 0.0 LegendMM LegendMM   100.18 30   LegendNANA
23:00 23.0 18.0 74 0.0 LegendMM LegendMM   100.20 29   LegendNANA

Notes on Data Quality.

Legend

  • E = Estimated
  • M = Missing
  • NA = Not Available*
  • [empty] = Indicates an unobserved value
Date modified: